sat.trackr.live / text

‹ back to catalog

UNKNOWN

NORAD 87163

UNKNOWN UNKNOWN UNKNOWN

§ Identity

Operator
Country
Launch date
Launch site
Launch vehicle
Mass (kg)
RCS (m²)

External: N2YO · Heavens-Above

§ Orbital elements

Epoch: 2026-09-07T03:17:31.224480Z

Period
105.47 min
Inclination
65.5980°
Eccentricity
0.0655519
Mean motion
13.65343690 rev/d
Perigee alt
531.6 km
Apogee alt
1,501.1 km
Semi-major
7,394.5 km
B*
4.0892e-4
RAAN
293.2335°
Arg perigee
305.8784°
Mean anomaly
48.3082°
Rev number
61,414

§ Raw data

UNKNOWN1 87163U          26250.13716695  .00001409  00000+0  40892-3 0  99972 87163  65.5980 293.2335 0655519 305.8784  48.3082 13.65343690614144

JSON: /api/v1/satellites/87163 · /tle

For live sub-satellite position, see the globe view (requires WebGL).

§ Visibility from observer

Set your observer location to see the next 7 days of passes ≥ 10°. The values pass through the URL so the page stays shareable.

No JS? Fill the form by hand. The geolocation button needs JavaScript.